Location: Rio Tanui
(39.9167°N, 8.5167°E)
Time: 15:39:23
(UTC+00:00)

Meteor 2-2 Rocket - Pass Details

Date: 26 June 2024
Orbit: 851 x 928 km, 81.3° (Epoch: 18 July)

Event Time Altitude Azimuth Distance (km) Brightness Sun altitude
Rises 03:09:34 0° 335° (NNW) 3,426 7.6 -8.5°
Reaches altitude 10° 03:12:31 10° 320° (NW) 2,487 6.7 -8.1°
Maximum altitude 03:16:37 21° 273° (W) 1,826 5.6 -7.5°
Drops below altitude 10° 03:20:43 10° 226° (SW) 2,492 6.0 -6.9°
Enters shadow 03:21:28 - 221° (SW) 2,712 6.2 -6.7°
